contact:dominique.lefevre@mio.osupytheas.fr, maurice.libes@osupytheas.fr, didier.mallarino@osupytheas.fr
Project:EMSO http://www.emso-fr.org/EMSO-France
Depth: 2436.0 m
Title:EMSO Ligure Ouest : Data MII capteur MICROCAT
DateTime_Computer,Latitude,Longitude,Temperature,Conductivity,Pressure,DateTime_Instrument
DateTime_Computer,Latitude,Longitude,degC,S m-1,dbar,DateTime_Instrument
2019-08-07T00:01:54Z,42.805,6.029,13.2964,4.59973,2469.984,2019-8-07T02:02:14Z
2019-08-07T00:04:58Z,42.805,6.029,13.2967,4.59978,2469.97,2019-8-07T02:05:18Z
2019-08-07T00:08:01Z,42.805,6.029,13.2961,4.59973,2469.984,2019-8-07T02:08:21Z
2019-08-07T00:11:04Z,42.805,6.029,13.2966,4.59972,2470.007,2019-8-07T02:11:24Z
2019-08-07T00:14:07Z,42.805,6.029,13.2965,4.59973,2469.947,2019-8-07T02:14:27Z
2019-08-07T00:17:10Z,42.805,6.029,13.2962,4.59972,2469.947,2019-8-07T02:17:30Z
2019-08-07T00:20:14Z,42.805,6.029,13.2965,4.59974,2469.993,2019-8-07T02:20:34Z
2019-08-07T00:23:17Z,42.805,6.029,13.2964,4.59971,2470.007,2019-8-07T02:23:37Z
2019-08-07T00:26:20Z,42.805,6.029,13.2968,4.59978,2469.97,2019-8-07T02:26:40Z
2019-08-07T00:29:23Z,42.805,6.029,13.2964,4.59968,2469.97,2019-8-07T02:29:43Z
2019-08-07T00:32:26Z,42.805,6.029,13.2963,4.59976,2469.97,2019-8-07T02:32:46Z
2019-08-07T00:35:30Z,42.805,6.029,13.2958,4.59975,2469.947,2019-8-07T02:35:50Z
2019-08-07T00:38:33Z,42.805,6.029,13.2961,4.59970,2469.984,2019-8-07T02:38:53Z
2019-08-07T00:41:36Z,42.805,6.029,13.2967,4.59978,2469.97,2019-8-07T02:41:56Z
2019-08-07T00:44:39Z,42.805,6.029,13.2967,4.59978,2469.947,2019-8-07T02:44:59Z
2019-08-07T00:47:43Z,42.805,6.029,13.2964,4.59978,2469.984,2019-8-07T02:48:03Z
2019-08-07T00:50:46Z,42.805,6.029,13.2968,4.59972,2469.97,2019-8-07T02:51:06Z
2019-08-07T00:53:49Z,42.805,6.029,13.2968,4.59985,2469.96,2019-8-07T02:54:09Z
2019-08-07T00:56:53Z,42.805,6.029,13.2964,4.59983,2469.97,2019-8-07T02:57:13Z
2019-08-07T00:59:56Z,42.805,6.029,13.2970,4.59989,2469.984,2019-8-07T03:00:16Z
2019-08-07T01:02:59Z,42.805,6.029,13.2959,4.59970,2469.947,2019-8-07T03:03:19Z
2019-08-07T01:06:02Z,42.805,6.029,13.2965,4.59971,2469.984,2019-8-07T03:06:22Z
2019-08-07T01:09:06Z,42.805,6.029,13.2968,4.59973,2469.923,2019-8-07T03:09:26Z
2019-08-07T01:12:09Z,42.805,6.029,13.2968,4.59978,2469.937,2019-8-07T03:12:29Z
2019-08-07T01:15:12Z,42.805,6.029,13.2965,4.59975,2469.97,2019-8-07T03:15:32Z
2019-08-07T01:18:15Z,42.805,6.029,13.2967,4.59981,2469.947,2019-8-07T03:18:36Z
2019-08-07T01:21:19Z,42.805,6.029,13.2968,4.59975,2469.97,2019-8-07T03:21:39Z
2019-08-07T01:24:22Z,42.805,6.029,13.2971,4.59973,2469.984,2019-8-07T03:24:42Z
2019-08-07T01:27:25Z,42.805,6.029,13.2959,4.59966,2469.947,2019-8-07T03:27:45Z
2019-08-07T01:30:29Z,42.805,6.029,13.2961,4.59969,2469.97,2019-8-07T03:30:49Z
2019-08-07T01:33:32Z,42.805,6.029,13.2974,4.59982,2469.993,2019-8-07T03:33:52Z
2019-08-07T01:36:35Z,42.805,6.029,13.2964,4.59973,2469.947,2019-8-07T03:36:55Z
2019-08-07T01:39:38Z,42.805,6.029,13.2963,4.59971,2469.947,2019-8-07T03:39:59Z
2019-08-07T01:42:42Z,42.805,6.029,13.2961,4.59975,2469.947,2019-8-07T03:43:02Z
2019-08-07T01:45:45Z,42.805,6.029,13.2964,4.59968,2469.984,2019-8-07T03:46:05Z
2019-08-07T01:48:48Z,42.805,6.029,13.2964,4.59968,2469.984,2019-8-07T03:49:08Z
2019-08-07T01:51:52Z,42.805,6.029,13.2971,4.59977,2469.947,2019-8-07T03:52:12Z
2019-08-07T01:54:55Z,42.805,6.029,13.2967,4.59982,2469.923,2019-8-07T03:55:15Z
2019-08-07T01:57:58Z,42.805,6.029,13.2963,4.59976,2469.96,2019-8-07T03:58:18Z
2019-08-07T02:01:01Z,42.805,6.029,13.2964,4.59968,2469.9,2019-8-07T04:01:21Z
2019-08-07T02:04:05Z,42.805,6.029,13.2964,4.59968,2469.947,2019-8-07T04:04:25Z
2019-08-07T02:07:08Z,42.805,6.029,13.2961,4.59967,2469.96,2019-8-07T04:07:28Z
2019-08-07T02:10:11Z,42.805,6.029,13.2967,4.59987,2469.89,2019-8-07T04:10:31Z
2019-08-07T02:13:15Z,42.805,6.029,13.2971,4.59978,2469.914,2019-8-07T04:13:35Z
2019-08-07T02:16:18Z,42.805,6.029,13.2966,4.59986,2469.937,2019-8-07T04:16:38Z
2019-08-07T02:19:21Z,42.805,6.029,13.2968,4.59984,2469.923,2019-8-07T04:19:41Z
2019-08-07T02:22:24Z,42.805,6.029,13.2960,4.59973,2469.923,2019-8-07T04:22:44Z
2019-08-07T02:25:28Z,42.805,6.029,13.2971,4.59968,2469.923,2019-8-07T04:25:48Z
2019-08-07T02:28:31Z,42.805,6.029,13.2966,4.59969,2469.96,2019-8-07T04:28:51Z
2019-08-07T02:31:34Z,42.805,6.029,13.2971,4.59972,2469.914,2019-8-07T04:31:54Z
2019-08-07T02:34:38Z,42.805,6.029,13.2966,4.59970,2469.984,2019-8-07T04:34:58Z
2019-08-07T02:37:41Z,42.805,6.029,13.2966,4.59972,2469.9,2019-8-07T04:38:01Z
2019-08-07T02:40:44Z,42.805,6.029,13.2963,4.59982,2469.89,2019-8-07T04:41:04Z
2019-08-07T02:43:47Z,42.805,6.029,13.2971,4.59990,2469.947,2019-8-07T04:44:08Z
2019-08-07T02:46:51Z,42.805,6.029,13.2964,4.59973,2469.876,2019-8-07T04:47:11Z
2019-08-07T02:49:54Z,42.805,6.029,13.2963,4.59970,2469.9,2019-8-07T04:50:14Z
2019-08-07T02:52:57Z,42.805,6.029,13.2968,4.59980,2469.9,2019-8-07T04:53:17Z
2019-08-07T02:56:01Z,42.805,6.029,13.2962,4.59974,2469.937,2019-8-07T04:56:21Z
2019-08-07T02:59:04Z,42.805,6.029,13.2964,4.59971,2469.937,2019-8-07T04:59:24Z
2019-08-07T03:02:07Z,42.805,6.029,13.2967,4.59971,2469.9,2019-8-07T05:02:27Z
2019-08-07T03:05:11Z,42.805,6.029,13.2963,4.59971,2469.9,2019-8-07T05:05:31Z
2019-08-07T03:08:14Z,42.805,6.029,13.2967,4.59973,2469.9,2019-8-07T05:08:34Z
2019-08-07T03:11:17Z,42.805,6.029,13.2967,4.59973,2469.9,2019-8-07T05:11:37Z
2019-08-07T03:14:20Z,42.805,6.029,13.2964,4.59993,2469.876,2019-8-07T05:14:41Z
2019-08-07T03:17:24Z,42.805,6.029,13.2968,4.59976,2469.914,2019-8-07T05:17:44Z
2019-08-07T03:20:27Z,42.805,6.029,13.2963,4.59968,2469.9,2019-8-07T05:20:47Z
2019-08-07T03:23:30Z,42.805,6.029,13.2966,4.59967,2469.914,2019-8-07T05:23:51Z
2019-08-07T03:26:34Z,42.805,6.029,13.2961,4.59966,2469.89,2019-8-07T05:26:54Z
2019-08-07T03:29:37Z,42.805,6.029,13.2968,4.59971,2469.9,2019-8-07T05:29:57Z
2019-08-07T03:32:40Z,42.805,6.029,13.2961,4.59973,2469.876,2019-8-07T05:33:00Z
2019-08-07T03:35:44Z,42.805,6.029,13.2964,4.59972,2469.876,2019-8-07T05:36:04Z
2019-08-07T03:38:47Z,42.805,6.029,13.2962,4.59983,2469.853,2019-8-07T05:39:07Z
2019-08-07T03:41:50Z,42.805,6.029,13.2968,4.59973,2469.914,2019-8-07T05:42:10Z
2019-08-07T03:44:53Z,42.805,6.029,13.2961,4.59973,2469.89,2019-8-07T05:45:13Z
2019-08-07T03:47:57Z,42.805,6.029,13.2963,4.59969,2469.876,2019-8-07T05:48:17Z
2019-08-07T03:51:00Z,42.805,6.029,13.2964,4.59971,2469.914,2019-8-07T05:51:20Z
2019-08-07T03:54:03Z,42.805,6.029,13.2967,4.59975,2469.876,2019-8-07T05:54:23Z
2019-08-07T03:57:07Z,42.805,6.029,13.2961,4.59973,2469.853,2019-8-07T05:57:27Z
2019-08-07T04:00:10Z,42.805,6.029,13.2963,4.59968,2469.876,2019-8-07T06:00:30Z
2019-08-07T04:03:13Z,42.805,6.029,13.2962,4.59969,2469.9,2019-8-07T06:03:33Z
2019-08-07T04:06:16Z,42.805,6.029,13.2962,4.59979,2469.9,2019-8-07T06:06:37Z
2019-08-07T04:09:20Z,42.805,6.029,13.2967,4.59973,2469.83,2019-8-07T06:09:40Z
2019-08-07T04:12:23Z,42.805,6.029,13.2964,4.59966,2469.914,2019-8-07T06:12:43Z
2019-08-07T04:15:26Z,42.805,6.029,13.2961,4.59966,2469.876,2019-8-07T06:15:46Z
2019-08-07T04:18:30Z,42.805,6.029,13.2961,4.59973,2469.867,2019-8-07T06:18:50Z
2019-08-07T04:21:33Z,42.805,6.029,13.2963,4.59984,2469.876,2019-8-07T06:21:53Z
2019-08-07T04:24:36Z,42.805,6.029,13.2971,4.59973,2469.914,2019-8-07T06:24:56Z
2019-08-07T04:27:40Z,42.805,6.029,13.2964,4.59976,2469.876,2019-8-07T06:28:00Z
2019-08-07T04:30:43Z,42.805,6.029,13.2976,4.59981,2469.867,2019-8-07T06:31:03Z
2019-08-07T04:33:46Z,42.805,6.029,13.2967,4.59970,2469.867,2019-8-07T06:34:06Z
2019-08-07T04:36:49Z,42.805,6.029,13.2965,4.59969,2469.853,2019-8-07T06:37:09Z
2019-08-07T04:39:53Z,42.805,6.029,13.2965,4.59973,2469.867,2019-8-07T06:40:13Z
2019-08-07T04:42:56Z,42.805,6.029,13.2966,4.59971,2469.853,2019-8-07T06:43:16Z
2019-08-07T04:45:59Z,42.805,6.029,13.2964,4.59972,2469.89,2019-8-07T06:46:19Z
2019-08-07T04:49:03Z,42.805,6.029,13.2966,4.59969,2469.853,2019-8-07T06:49:23Z
2019-08-07T04:52:06Z,42.805,6.029,13.2964,4.59970,2469.867,2019-8-07T06:52:26Z
2019-08-07T04:55:09Z,42.805,6.029,13.2963,4.59973,2469.853,2019-8-07T06:55:29Z
2019-08-07T04:58:12Z,42.805,6.029,13.2962,4.59973,2469.853,2019-8-07T06:58:33Z
2019-08-07T05:01:16Z,42.805,6.029,13.2967,4.59969,2469.83,2019-8-07T07:01:36Z
2019-08-07T05:04:19Z,42.805,6.029,13.2963,4.59967,2469.853,2019-8-07T07:04:39Z
2019-08-07T05:07:22Z,42.805,6.029,13.2964,4.59970,2469.876,2019-8-07T07:07:43Z
2019-08-07T05:10:26Z,42.805,6.029,13.2963,4.59994,2469.83,2019-8-07T07:10:46Z
2019-08-07T05:13:29Z,42.805,6.029,13.2960,4.59966,2469.853,2019-8-07T07:13:49Z
2019-08-07T05:16:32Z,42.805,6.029,13.2966,4.59974,2469.844,2019-8-07T07:16:52Z
2019-08-07T05:19:36Z,42.805,6.029,13.2963,4.59968,2469.876,2019-8-07T07:19:56Z
2019-08-07T05:22:39Z,42.805,6.029,13.2961,4.59974,2469.844,2019-8-07T07:22:59Z
2019-08-07T05:25:42Z,42.805,6.029,13.2967,4.59969,2469.867,2019-8-07T07:26:02Z
2019-08-07T05:28:46Z,42.805,6.029,13.2967,4.59980,2469.853,2019-8-07T07:29:06Z
2019-08-07T05:31:49Z,42.805,6.029,13.2964,4.59973,2469.821,2019-8-07T07:32:09Z
2019-08-07T05:34:52Z,42.805,6.029,13.2963,4.59971,2469.844,2019-8-07T07:35:12Z
2019-08-07T05:37:55Z,42.805,6.029,13.2968,4.59968,2469.806,2019-8-07T07:38:15Z
2019-08-07T05:40:59Z,42.805,6.029,13.2964,4.59973,2469.806,2019-8-07T07:41:19Z
2019-08-07T05:44:02Z,42.805,6.029,13.2965,4.59973,2469.83,2019-8-07T07:44:22Z
2019-08-07T05:47:05Z,42.805,6.029,13.2961,4.59968,2469.806,2019-8-07T07:47:25Z
2019-08-07T05:50:08Z,42.805,6.029,13.2964,4.59978,2469.783,2019-8-07T07:50:29Z
2019-08-07T05:53:12Z,42.805,6.029,13.2967,4.59968,2469.806,2019-8-07T07:53:32Z
2019-08-07T05:56:15Z,42.805,6.029,13.2967,4.59976,2469.806,2019-8-07T07:56:35Z
2019-08-07T05:59:18Z,42.805,6.029,13.2964,4.59973,2469.806,2019-8-07T07:59:38Z
2019-08-07T06:02:22Z,42.805,6.029,13.2964,4.59971,2469.783,2019-8-07T08:02:42Z
2019-08-07T06:05:25Z,42.805,6.029,13.2966,4.59972,2469.83,2019-8-07T08:05:45Z
2019-08-07T06:08:28Z,42.805,6.029,13.2961,4.59971,2469.834,2019-8-07T08:08:48Z
2019-08-07T06:11:32Z,42.805,6.029,13.2963,4.59973,2469.83,2019-8-07T08:11:52Z
2019-08-07T06:14:35Z,42.805,6.029,13.2967,4.59978,2469.821,2019-8-07T08:14:55Z
2019-08-07T06:17:38Z,42.805,6.029,13.2969,4.59983,2469.821,2019-8-07T08:17:58Z
2019-08-07T06:20:41Z,42.805,6.029,13.2963,4.59970,2469.821,2019-8-07T08:21:02Z
2019-08-07T06:23:45Z,42.805,6.029,13.2969,4.59983,2469.83,2019-8-07T08:24:05Z
2019-08-07T06:26:48Z,42.805,6.029,13.2967,4.59977,2469.821,2019-8-07T08:27:08Z
2019-08-07T06:29:51Z,42.805,6.029,13.2964,4.59969,2469.83,2019-8-07T08:30:11Z
2019-08-07T06:32:55Z,42.805,6.029,13.2964,4.59972,2469.821,2019-8-07T08:33:15Z
2019-08-07T06:35:58Z,42.805,6.029,13.2961,4.59978,2469.783,2019-8-07T08:36:18Z
2019-08-07T06:39:01Z,42.805,6.029,13.2963,4.59971,2469.83,2019-8-07T08:39:21Z
2019-08-07T06:42:04Z,42.805,6.029,13.2968,4.59975,2469.806,2019-8-07T08:42:24Z
2019-08-07T06:45:08Z,42.805,6.029,13.2959,4.59980,2469.821,2019-8-07T08:45:28Z
2019-08-07T06:48:11Z,42.805,6.029,13.2962,4.59967,2469.821,2019-8-07T08:48:31Z
2019-08-07T06:51:14Z,42.805,6.029,13.2967,4.59968,2469.83,2019-8-07T08:51:34Z
2019-08-07T06:54:17Z,42.805,6.029,13.2974,4.59981,2469.806,2019-8-07T08:54:37Z
2019-08-07T06:57:20Z,42.805,6.029,13.2967,4.59969,2469.867,2019-8-07T08:57:41Z
2019-08-07T07:00:24Z,42.805,6.029,13.2964,4.59971,2469.83,2019-8-07T09:00:44Z
2019-08-07T07:03:27Z,42.805,6.029,13.2971,4.59979,2469.821,2019-8-07T09:03:47Z
2019-08-07T07:06:30Z,42.805,6.029,13.2967,4.59981,2469.806,2019-8-07T09:06:50Z
2019-08-07T07:09:33Z,42.805,6.029,13.2962,4.59971,2469.806,2019-8-07T09:09:53Z
2019-08-07T07:12:36Z,42.805,6.029,13.2967,4.59967,2469.806,2019-8-07T09:12:56Z
2019-08-07T07:15:40Z,42.805,6.029,13.2959,4.59968,2469.806,2019-8-07T09:16:00Z
2019-08-07T07:18:43Z,42.805,6.029,13.2964,4.59966,2469.806,2019-8-07T09:19:03Z
2019-08-07T07:21:46Z,42.805,6.029,13.2968,4.59968,2469.806,2019-8-07T09:22:06Z
2019-08-07T07:24:49Z,42.805,6.029,13.2966,4.59982,2469.797,2019-8-07T09:25:09Z
2019-08-07T07:27:52Z,42.805,6.029,13.2967,4.59972,2469.821,2019-8-07T09:28:12Z
2019-08-07T07:30:56Z,42.805,6.029,13.2963,4.59971,2469.853,2019-8-07T09:31:16Z
2019-08-07T07:33:59Z,42.805,6.029,13.2961,4.59976,2469.821,2019-8-07T09:34:19Z
2019-08-07T07:37:02Z,42.805,6.029,13.2966,4.59969,2469.83,2019-8-07T09:37:22Z
2019-08-07T07:40:05Z,42.805,6.029,13.2964,4.59971,2469.844,2019-8-07T09:40:25Z
2019-08-07T07:43:08Z,42.805,6.029,13.2964,4.59974,2469.83,2019-8-07T09:43:28Z
2019-08-07T07:46:11Z,42.805,6.029,13.2967,4.59988,2469.821,2019-8-07T09:46:32Z
2019-08-07T07:49:15Z,42.805,6.029,13.2963,4.59970,2469.821,2019-8-07T09:49:35Z
2019-08-07T07:52:18Z,42.805,6.029,13.2961,4.59973,2469.821,2019-8-07T09:52:38Z
2019-08-07T07:55:21Z,42.805,6.029,13.2964,4.59971,2469.83,2019-8-07T09:55:41Z
2019-08-07T07:58:24Z,42.805,6.029,13.2966,4.59971,2469.83,2019-8-07T09:58:44Z
2019-08-07T08:01:27Z,42.805,6.029,13.2960,4.59965,2469.806,2019-8-07T10:01:48Z
2019-08-07T08:04:31Z,42.805,6.029,13.2967,4.59967,2469.867,2019-8-07T10:04:51Z
2019-08-07T08:07:34Z,42.805,6.029,13.2967,4.59982,2469.844,2019-8-07T10:07:54Z
2019-08-07T08:10:37Z,42.805,6.029,13.2963,4.59968,2469.806,2019-8-07T10:10:57Z
2019-08-07T08:13:40Z,42.805,6.029,13.2961,4.59966,2469.83,2019-8-07T10:14:00Z
2019-08-07T08:16:43Z,42.805,6.029,13.2966,4.59968,2469.806,2019-8-07T10:17:04Z
2019-08-07T08:19:47Z,42.805,6.029,13.2968,4.59965,2469.853,2019-8-07T10:20:07Z
2019-08-07T08:22:50Z,42.805,6.029,13.2961,4.59978,2469.844,2019-8-07T10:23:10Z
2019-08-07T08:25:53Z,42.805,6.029,13.2962,4.59967,2469.844,2019-8-07T10:26:13Z
2019-08-07T08:28:56Z,42.805,6.029,13.2963,4.59969,2469.853,2019-8-07T10:29:16Z
2019-08-07T08:31:59Z,42.805,6.029,13.2964,4.59966,2469.867,2019-8-07T10:32:19Z
2019-08-07T08:35:03Z,42.805,6.029,13.2964,4.59981,2469.867,2019-8-07T10:35:23Z
2019-08-07T08:38:06Z,42.805,6.029,13.2964,4.59964,2469.83,2019-8-07T10:38:26Z
2019-08-07T08:41:09Z,42.805,6.029,13.2964,4.59971,2469.83,2019-8-07T10:41:29Z
2019-08-07T08:44:12Z,42.805,6.029,13.2967,4.59969,2469.844,2019-8-07T10:44:32Z
2019-08-07T08:47:15Z,42.805,6.029,13.2964,4.59968,2469.83,2019-8-07T10:47:36Z
2019-08-07T08:50:19Z,42.805,6.029,13.2969,4.59969,2469.876,2019-8-07T10:50:39Z
2019-08-07T08:53:22Z,42.805,6.029,13.2967,4.59975,2469.844,2019-8-07T10:53:42Z
2019-08-07T08:56:25Z,42.805,6.029,13.2963,4.59966,2469.844,2019-8-07T10:56:45Z
2019-08-07T08:59:29Z,42.805,6.029,13.2963,4.59966,2469.867,2019-8-07T10:59:49Z
2019-08-07T09:02:32Z,42.805,6.029,13.2964,4.59970,2469.844,2019-8-07T11:02:52Z
2019-08-07T09:05:35Z,42.805,6.029,13.2971,4.59976,2469.853,2019-8-07T11:05:55Z
2019-08-07T09:08:38Z,42.805,6.029,13.2958,4.59966,2469.853,2019-8-07T11:08:58Z
2019-08-07T09:11:41Z,42.805,6.029,13.2968,4.59971,2469.876,2019-8-07T11:12:02Z
2019-08-07T09:14:45Z,42.805,6.029,13.2963,4.59971,2469.89,2019-8-07T11:15:05Z
2019-08-07T09:17:48Z,42.805,6.029,13.2966,4.59972,2469.867,2019-8-07T11:18:08Z
2019-08-07T09:20:51Z,42.805,6.029,13.2971,4.59978,2469.83,2019-8-07T11:21:11Z
2019-08-07T09:23:54Z,42.805,6.029,13.2961,4.59966,2469.89,2019-8-07T11:24:14Z
2019-08-07T09:26:57Z,42.805,6.029,13.2961,4.59979,2469.853,2019-8-07T11:27:17Z
2019-08-07T09:30:01Z,42.805,6.029,13.2965,4.59968,2469.876,2019-8-07T11:30:21Z
2019-08-07T09:33:04Z,42.805,6.029,13.2967,4.59970,2469.876,2019-8-07T11:33:24Z
2019-08-07T09:36:07Z,42.805,6.029,13.2966,4.59970,2469.9,2019-8-07T11:36:27Z
2019-08-07T09:39:10Z,42.805,6.029,13.2965,4.59967,2469.89,2019-8-07T11:39:30Z
2019-08-07T09:42:13Z,42.805,6.029,13.2966,4.59966,2469.83,2019-8-07T11:42:34Z
2019-08-07T09:45:17Z,42.805,6.029,13.2964,4.59967,2469.89,2019-8-07T11:45:37Z
2019-08-07T09:48:20Z,42.805,6.029,13.2964,4.59970,2469.914,2019-8-07T11:48:40Z
2019-08-07T09:51:23Z,42.805,6.029,13.2959,4.59967,2469.876,2019-8-07T11:51:43Z
2019-08-07T09:54:26Z,42.805,6.029,13.2963,4.59974,2469.876,2019-8-07T11:54:46Z
2019-08-07T09:57:30Z,42.805,6.029,13.2963,4.59972,2469.9,2019-8-07T11:57:50Z
2019-08-07T10:00:33Z,42.805,6.029,13.2961,4.59973,2469.937,2019-8-07T12:00:53Z
2019-08-07T10:03:36Z,42.805,6.029,13.2964,4.59979,2469.914,2019-8-07T12:03:56Z
2019-08-07T10:06:39Z,42.805,6.029,13.2964,4.59970,2469.867,2019-8-07T12:06:59Z
2019-08-07T10:09:42Z,42.805,6.029,13.2966,4.59968,2469.876,2019-8-07T12:10:02Z
2019-08-07T10:12:45Z,42.805,6.029,13.2968,4.59989,2469.867,2019-8-07T12:13:06Z
2019-08-07T10:15:49Z,42.805,6.029,13.2971,4.59976,2469.914,2019-8-07T12:16:09Z
2019-08-07T10:18:52Z,42.805,6.029,13.2961,4.59970,2469.914,2019-8-07T12:19:12Z
2019-08-07T10:21:55Z,42.805,6.029,13.2964,4.59969,2469.9,2019-8-07T12:22:15Z
2019-08-07T10:24:58Z,42.805,6.029,13.2964,4.59966,2469.89,2019-8-07T12:25:18Z
2019-08-07T10:28:02Z,42.805,6.029,13.2963,4.59967,2469.876,2019-8-07T12:28:22Z
2019-08-07T10:31:05Z,42.805,6.029,13.2970,4.59973,2469.9,2019-8-07T12:31:25Z
2019-08-07T10:34:08Z,42.805,6.029,13.2968,4.59972,2469.9,2019-8-07T12:34:28Z
2019-08-07T10:37:11Z,42.805,6.029,13.2970,4.59970,2469.9,2019-8-07T12:37:31Z
2019-08-07T10:40:14Z,42.805,6.029,13.2964,4.59971,2469.923,2019-8-07T12:40:35Z
2019-08-07T10:43:18Z,42.805,6.029,13.2962,4.59971,2469.937,2019-8-07T12:43:38Z
2019-08-07T10:46:21Z,42.805,6.029,13.2965,4.59968,2469.923,2019-8-07T12:46:41Z
2019-08-07T10:49:24Z,42.805,6.029,13.2966,4.59966,2469.9,2019-8-07T12:49:44Z
2019-08-07T10:52:27Z,42.805,6.029,13.2958,4.59966,2469.9,2019-8-07T12:52:47Z
2019-08-07T10:55:31Z,42.805,6.029,13.2967,4.59968,2469.9,2019-8-07T12:55:51Z
2019-08-07T10:58:34Z,42.805,6.029,13.2964,4.59967,2469.867,2019-8-07T12:58:54Z
2019-08-07T11:01:37Z,42.805,6.029,13.2963,4.59972,2469.9,2019-8-07T13:01:57Z
2019-08-07T11:04:40Z,42.805,6.029,13.2969,4.59970,2469.923,2019-8-07T13:05:00Z
2019-08-07T11:07:43Z,42.805,6.029,13.2961,4.59966,2469.923,2019-8-07T13:08:04Z
2019-08-07T11:10:47Z,42.805,6.029,13.2964,4.59974,2469.9,2019-8-07T13:11:07Z
2019-08-07T11:13:50Z,42.805,6.029,13.2964,4.59973,2469.984,2019-8-07T13:14:10Z
2019-08-07T11:16:53Z,42.805,6.029,13.2964,4.59971,2469.937,2019-8-07T13:17:13Z
2019-08-07T11:19:56Z,42.805,6.029,13.2963,4.59966,2469.914,2019-8-07T13:20:16Z
2019-08-07T11:22:59Z,42.805,6.029,13.2961,4.59967,2469.876,2019-8-07T13:23:20Z
2019-08-07T11:26:03Z,42.805,6.029,13.2962,4.59969,2469.96,2019-8-07T13:26:23Z
2019-08-07T11:29:06Z,42.805,6.029,13.2963,4.59971,2469.947,2019-8-07T13:29:26Z
2019-08-07T11:32:09Z,42.805,6.029,13.2962,4.59971,2469.96,2019-8-07T13:32:29Z
2019-08-07T11:35:12Z,42.805,6.029,13.2960,4.59971,2469.937,2019-8-07T13:35:32Z
2019-08-07T11:38:16Z,42.805,6.029,13.2967,4.59968,2469.923,2019-8-07T13:38:36Z
2019-08-07T11:41:19Z,42.805,6.029,13.2966,4.59965,2469.96,2019-8-07T13:41:39Z
2019-08-07T11:44:22Z,42.805,6.029,13.2963,4.59976,2469.947,2019-8-07T13:44:42Z
2019-08-07T11:47:25Z,42.805,6.029,13.2964,4.59977,2469.937,2019-8-07T13:47:45Z
2019-08-07T11:50:28Z,42.805,6.029,13.2965,4.59970,2469.937,2019-8-07T13:50:49Z
2019-08-07T11:53:32Z,42.805,6.029,13.2965,4.59968,2469.914,2019-8-07T13:53:52Z
2019-08-07T11:56:35Z,42.805,6.029,13.2963,4.59969,2469.96,2019-8-07T13:56:55Z
2019-08-07T11:59:38Z,42.805,6.029,13.2965,4.59969,2469.937,2019-8-07T13:59:58Z
2019-08-07T12:02:41Z,42.805,6.029,13.2959,4.59969,2469.923,2019-8-07T14:03:01Z
2019-08-07T12:05:44Z,42.805,6.029,13.2965,4.59975,2469.947,2019-8-07T14:06:05Z
2019-08-07T12:08:48Z,42.805,6.029,13.2962,4.59968,2469.97,2019-8-07T14:09:08Z
2019-08-07T12:11:51Z,42.805,6.029,13.2965,4.59966,2469.9,2019-8-07T14:12:11Z
2019-08-07T12:14:54Z,42.805,6.029,13.2968,4.59972,2469.947,2019-8-07T14:15:14Z
2019-08-07T12:17:57Z,42.805,6.029,13.2958,4.59981,2469.937,2019-8-07T14:18:17Z
2019-08-07T12:21:01Z,42.805,6.029,13.2967,4.59971,2469.937,2019-8-07T14:21:21Z
2019-08-07T12:24:04Z,42.805,6.029,13.2958,4.59966,2469.947,2019-8-07T14:24:24Z
2019-08-07T12:27:07Z,42.805,6.029,13.2962,4.59971,2469.947,2019-8-07T14:27:27Z
2019-08-07T12:30:10Z,42.805,6.029,13.2967,4.59966,2469.947,2019-8-07T14:30:30Z
2019-08-07T12:33:13Z,42.805,6.029,13.2967,4.59968,2469.937,2019-8-07T14:33:34Z
2019-08-07T12:36:17Z,42.805,6.029,13.2961,4.59968,2469.923,2019-8-07T14:36:37Z
2019-08-07T12:39:20Z,42.805,6.029,13.2961,4.59966,2469.96,2019-8-07T14:39:40Z
2019-08-07T12:42:23Z,42.805,6.029,13.2965,4.59966,2469.914,2019-8-07T14:42:43Z
2019-08-07T12:45:26Z,42.805,6.029,13.2965,4.59971,2469.914,2019-8-07T14:45:47Z
2019-08-07T12:48:30Z,42.805,6.029,13.2962,4.59966,2469.947,2019-8-07T14:48:50Z
2019-08-07T12:51:33Z,42.805,6.029,13.2962,4.59966,2469.876,2019-8-07T14:51:53Z
2019-08-07T12:54:36Z,42.805,6.029,13.2961,4.59966,2469.923,2019-8-07T14:54:56Z
2019-08-07T12:57:40Z,42.805,6.029,13.2968,4.59975,2469.947,2019-8-07T14:58:00Z
2019-08-07T13:00:43Z,42.805,6.029,13.2967,4.59968,2469.9,2019-8-07T15:01:03Z
2019-08-07T13:03:46Z,42.805,6.029,13.2965,4.59965,2469.96,2019-8-07T15:04:06Z
2019-08-07T13:06:49Z,42.805,6.029,13.2967,4.59977,2469.9,2019-8-07T15:07:09Z
2019-08-07T13:09:53Z,42.805,6.029,13.2965,4.59971,2469.923,2019-8-07T15:10:13Z
2019-08-07T13:12:56Z,42.805,6.029,13.2964,4.59969,2469.937,2019-8-07T15:13:16Z
2019-08-07T13:15:59Z,42.805,6.029,13.2964,4.59972,2469.9,2019-8-07T15:16:19Z
2019-08-07T13:19:02Z,42.805,6.029,13.2964,4.59966,2469.923,2019-8-07T15:19:22Z
2019-08-07T13:22:05Z,42.805,6.029,13.2962,4.59969,2469.937,2019-8-07T15:22:25Z
2019-08-07T13:25:09Z,42.805,6.029,13.2963,4.59964,2469.923,2019-8-07T15:25:29Z
2019-08-07T13:28:12Z,42.805,6.029,13.2959,4.59964,2469.9,2019-8-07T15:28:32Z
2019-08-07T13:31:15Z,42.805,6.029,13.2966,4.59966,2469.9,2019-8-07T15:31:35Z
2019-08-07T13:34:18Z,42.805,6.029,13.2969,4.59979,2469.947,2019-8-07T15:34:38Z
2019-08-07T13:37:22Z,42.805,6.029,13.2962,4.59968,2469.923,2019-8-07T15:37:42Z
2019-08-07T13:40:25Z,42.805,6.029,13.2968,4.59973,2469.923,2019-8-07T15:40:45Z
2019-08-07T13:43:28Z,42.805,6.029,13.2964,4.59970,2469.9,2019-8-07T15:43:48Z
2019-08-07T13:46:31Z,42.805,6.029,13.2964,4.59968,2469.937,2019-8-07T15:46:51Z
2019-08-07T13:49:34Z,42.805,6.029,13.2967,4.59970,2469.9,2019-8-07T15:49:55Z
2019-08-07T13:52:38Z,42.805,6.029,13.2966,4.59966,2469.923,2019-8-07T15:52:58Z
2019-08-07T13:55:41Z,42.805,6.029,13.2967,4.59971,2469.914,2019-8-07T15:56:01Z
2019-08-07T13:58:44Z,42.805,6.029,13.2968,4.59980,2469.9,2019-8-07T15:59:04Z
2019-08-07T14:01:47Z,42.805,6.029,13.2970,4.59981,2469.89,2019-8-07T16:02:07Z
2019-08-07T14:04:51Z,42.805,6.029,13.2965,4.59971,2469.923,2019-8-07T16:05:11Z
2019-08-07T14:07:54Z,42.805,6.029,13.2958,4.59966,2469.876,2019-8-07T16:08:14Z
2019-08-07T14:10:57Z,42.805,6.029,13.2967,4.59966,2469.9,2019-8-07T16:11:17Z
2019-08-07T14:14:00Z,42.805,6.029,13.2964,4.59967,2469.9,2019-8-07T16:14:20Z
2019-08-07T14:17:04Z,42.805,6.029,13.2960,4.59971,2469.9,2019-8-07T16:17:24Z
2019-08-07T14:20:07Z,42.805,6.029,13.2962,4.59977,2469.914,2019-8-07T16:20:27Z
2019-08-07T14:23:10Z,42.805,6.029,13.2965,4.59968,2469.923,2019-8-07T16:23:30Z
2019-08-07T14:26:13Z,42.805,6.029,13.2964,4.59967,2469.9,2019-8-07T16:26:33Z
2019-08-07T14:29:17Z,42.805,6.029,13.2967,4.59975,2469.96,2019-8-07T16:29:37Z
2019-08-07T14:32:20Z,42.805,6.029,13.2969,4.59974,2469.923,2019-8-07T16:32:40Z
2019-08-07T14:35:23Z,42.805,6.029,13.2961,4.59968,2469.876,2019-8-07T16:35:43Z
2019-08-07T14:38:26Z,42.805,6.029,13.2964,4.59967,2469.914,2019-8-07T16:38:46Z
2019-08-07T14:41:29Z,42.805,6.029,13.2967,4.59968,2469.914,2019-8-07T16:41:50Z
2019-08-07T14:44:33Z,42.805,6.029,13.2967,4.59966,2469.89,2019-8-07T16:44:53Z
2019-08-07T14:47:36Z,42.805,6.029,13.2968,4.59970,2469.9,2019-8-07T16:47:56Z
2019-08-07T14:50:39Z,42.805,6.029,13.2961,4.59968,2469.9,2019-8-07T16:50:59Z
2019-08-07T14:53:42Z,42.805,6.029,13.2961,4.59975,2469.937,2019-8-07T16:54:03Z
2019-08-07T14:56:46Z,42.805,6.029,13.2972,4.59970,2469.89,2019-8-07T16:57:06Z
2019-08-07T14:59:49Z,42.805,6.029,13.2967,4.59972,2469.9,2019-8-07T17:00:09Z
2019-08-07T15:02:52Z,42.805,6.029,13.2967,4.59985,2469.914,2019-8-07T17:03:12Z
2019-08-07T15:05:55Z,42.805,6.029,13.2969,4.59979,2469.9,2019-8-07T17:06:15Z
2019-08-07T15:08:59Z,42.805,6.029,13.2967,4.59968,2469.876,2019-8-07T17:09:19Z
2019-08-07T15:12:02Z,42.805,6.029,13.2969,4.59978,2469.89,2019-8-07T17:12:22Z
2019-08-07T15:15:05Z,42.805,6.029,13.2966,4.59988,2469.853,2019-8-07T17:15:25Z